Regional Weather Roundup
Issued by NWS Charleston, SC

Current Version | Previous Version | Text Only | Print | Product List | Glossary Off
Versions: 1 2 3 4 5 6 7 8 9 10 11 12 13 14 15 16 17 18 19 20 21 22 23 24 25 26 27 28 29 30 31 32 33 34 35 36 37 38 39 40 41 42 43 44 45 46 47 48 49 50

000
ASUS42 KCHS 231827
RWRCHS

REGIONAL WEATHER ROUNDUP
NATIONAL WEATHER SERVICE CHARLESTON SC
100 PM EST THU NOV 23 2017

NOTE: "FAIR" INDICATES FEW OR NO CLOUDS BELOW 12,000 FEET WITH NO
SIGNIFICANT WEATHER AND/OR OBSTRUCTIONS TO VISIBILITY.

NOT ALL STATIONS ARE QUALITY CONTROLLED. USE DATA WITH CAUTION...
ESPECIALLY DEWPOINT OBSERVATIONS.

SCZ027-030-031-034>040-042>050-231900-
...SOUTHEAST SOUTH CAROLINA...

CITY           SKY/WX    TMP DP  RH WIND       PRES   REMARKS
N CHARLESTON   LGT RAIN  47  46  97 N9        30.03F
6HR MIN TEMP:  47; 6HR MAX TEMP:  48; 6HR PCP:  0.08;

WATERFRONT PRK NOT AVBL
JOHNS ISLAND   RAIN      50  48  93 N13       30.02F
PINOPOLIS        N/A     46  43  87 NE8       29.97F
MONCKS CORNER  LGT RAIN  46  43  87 N3        30.04F
SUMMERVILLE    DRIZZLE   46  45  93 N6        30.05F
BEAUFORT MCAS  LGT RAIN  50  50 100 N12       30.01F FOG
6HR MIN TEMP:  49; 6HR MAX TEMP:  50; 6HR PCP:  0.27;

BEAUFORT ARPT  RAIN      50  50 100 NE10      30.00F
HILTON HEAD IS NOT AVBL
WALTERBORO     DRIZZLE   45  45 100 NE5       30.03F
ALLENDALE      FAIR      50  41  71 NE6       30.02F

...SOUTHERN MIDLANDS AND PEE DEE...

CITY           SKY/WX    TMP DP  RH WIND       PRES   REMARKS
GEORGETOWN     LGT RAIN  46  46 100 N5        30.06S
KINGSTREE      FAIR      46  36  66 N5        30.06F
ORANGEBURG     CLOUDY    49  36  61 NE9       30.05F
6HR MIN TEMP:  45; 6HR MAX TEMP:  49;

BARNWELL         N/A     52  41  66 N8        30.04F
AIKEN          FAIR      52  36  54 N8        30.07F
MANNING        FAIR      46  36  66 MISG      30.07S
COLUMBIA       CLOUDY    53  35  50 NE6       30.07F
6HR MIN TEMP:  46; 6HR MAX TEMP:  53;

SUMTER         CLOUDY    49  33  53 N9        30.05F
6HR MIN TEMP:  42; 6HR MAX TEMP:  49;

FLORENCE       CLOUDY    49  34  56 NE10      30.08F
6HR MIN TEMP:  41; 6HR MAX TEMP:  49;

MYRTLE BEACH   CLOUDY    48  40  73 N8        30.07F
N MYRTLE BEACH CLOUDY    48  39  71 N9        30.05F
6HR MIN TEMP:  45; 6HR MAX TEMP:  48;


$$

GAZ063-065-086>088-099>101-113>116-118-119-134>141-150-231900-
...SOUTHEAST GEORGIA...

CITY           SKY/WX    TMP DP  RH WIND       PRES   REMARKS
SAVANNAH ARPT  RAIN      50  50 100 NE8       30.00F FOG
6HR MIN TEMP:  48; 6HR MAX TEMP:  50; 6HR PCP:  0.38;

HUNTER AAF     LGT RAIN  51  49  92 NE5       29.97F
6HR MIN TEMP:  49; 6HR MAX TEMP:  53; 6HR PCP:  0.41;

FORT STEWART   RAIN      50  48  93 N7        29.96F
6HR MIN TEMP:  49; 6HR MAX TEMP:  52; 6HR PCP:  0.39;

STATESBORO     CLOUDY    52  45  77 N6        30.01F
SYLVANIA       CLOUDY    52  47  83 NE7       30.02F
CLAXTON        DRIZZLE   52  50  93 N6        30.01F

...CSRA...CENTRAL AND FAR SOUTHEAST GEORGIA...

CITY           SKY/WX    TMP DP  RH WIND       PRES   REMARKS
THOMSON        PTSUNNY   56  37  49 NE8       30.09F
AUGUSTA-BUSH   CLOUDY    55  38  52 E8        30.04F
6HR MIN TEMP:  47; 6HR MAX TEMP:  55;

AUGUSTA-DANIEL CLOUDY    57  36  45 N7        30.05F
SWAINSBORO     FAIR      54  43  66 NE5       30.02F
VIDALIA        CLOUDY    55  50  82 NE6       30.00F
EASTMAN        CLOUDY    61  38  41 E6        30.02F
HAZLEHURST     CLOUDY    54  50  86 NE7       29.98F
ALMA           CLOUDY    55  52  89 VRB3      29.97F
6HR MIN TEMP:  53; 6HR MAX TEMP:  56; 6HR PCP: TRACE;

WAYCROSS       DRIZZLE   55  52  90 NE7       29.96F
JESUP          LGT RAIN  54  50  87 NE6       29.98S
BAXLEY         DRIZZLE   52  52 100 NE7       29.97F
BRUNSWICK      LGT RAIN  55  54  94 NE9       29.96F
SAINT SIMONS   LGT RAIN  60  60 100 NE10      29.95F
6HR MIN TEMP:  59; 6HR MAX TEMP:  62; 6HR PCP:  0.41;


$$

SCZ027-028-034-036>038-045-046-048>050-GAZ119-141-231900-
...LAKE AND SUPPLEMENTAL COASTAL OBSERVATIONS...

STATION/POSITION TIME  TEMP    WIND        PRES    WAVE   SWELL
                       AIR SEA DIR/SP/G            HT/PER HT/PER/DIR
                 (UTC) (F)     (DEG/KT/KT) (MB)    (FT/S) (FT/S/D)
WINYAH BAY       1745   48      10/  5     1017.0F
LAKE MURRAY      1750   51      40/  3/  6 1017.6F
ACE BASIN NERRS  1745   49      10/  3     1017.0S
FORT PULASKI     1800   53 62   40/  8/ 10 1015.7
SAPELO ISLAND    1800   57      40/ 11     1014.0

$$

ANZ835-935-AMZ111-154-330-350-352-354-370-450-454-472-231900-
...C-MAN AND BUOY OBSERVATIONS...

STATION/POSITION TIME  TEMP    WIND        PRES    WAVE   SWELL
                       AIR SEA DIR/SP/G            HT/PER HT/PER/DIR
                 (UTC) (F)     (DEG/KT/KT) (MB)    (FT/S) (FT/S/D)
BUOY 41004       1810   65 75   30/ 19/ 25 1014.6
BUOY 41008       1750   63 67   50/ 19/ 21 1013.8F   6/ 6   2/100/ 9
FOLLY BEACH CMAN 1800   51      10/ 12/ 14 1017.1F
CAPERS NEARSHORE 1808   50 62   30/ 16/ 23 1015.9F
FRIPP NEARSHORE  1808   53 62   20/ 12/ 23 1015.1F


STATION/POSITION TIME  TEMP    WIND        PRES    WAVE   SWELL
                       AIR SEA DIR/SP/G            HT/PER HT/PER/DIR
                 (UTC) (F)     (DEG/KT/KT) (MB)    (FT/S) (FT/S/D)
5E ST. MARYS GA  1800      67                N/A     6/ 6   2/100/11
FRYING PAN BUOY  1810   61 72   30/ 19/ 25 1015.8
BUOY 41025       1810   57 72   10/ 14/ 19 1017.6
CAPE LOOKOUT NC  1800           10/ 13/ 16 1018.1F
BUOY 41002       1750   72 76   60/ 14/ 17 1013.5F   7/ 9   5/100/ 9
BUOY 41010       NOT AVBL
ST AUGUSTINE FL  1800   67 69   30/ 16/ 18 1011.3F


$$




USA.gov is the U.S. government's official web portal to all federal, state and local government web resources and services.